Regional Weather Roundup
Issued by NWS

Home | Current Version | Previous Version | Graphics & Text | Print | Product List | Glossary On
Versions: 1 2 3 4 5 6 7 8 9 10 11 12 13 14 15 16 17 18 19 20 21 22 23 24 25 26 27 28 29 30 31 32 33 34 35 36 37 38 39 40 41 42 43 44 45 46 47 48 49 50
000
ASUS43 KDMX 020507
RWRIA

WEATHER ROUNDUP FOR IOWA
NATIONAL WEATHER SERVICE DES MOINES IA
1200 AM CDT SAT AUG 02 2014

NOTE: "FAIR" INDICATES FEW OR NO CLOUDS BELOW 12,000 FEET WITH NO
SIGNIFICANT WEATHER AND/OR OBSTRUCTIONS TO VISIBILITY.

* - THESE STATIONS ARE NOT NWS STATIONS...THUS NOT UNDER NWS
QUALITY CONTROL.  THEY ALSO DO NOT REPORT WEATHER SUCH
AS PRECIPITATION OR FOG.

IAZ001>003-012>014-020>022-031>034-043>046-020600-
   NORTHWEST IOWA

CITY           SKY/WX    TMP DP  RH WIND       PRES   REMARKS
CARROLL *      PTCLDY    59  59 100 CALM      30.13R
CHEROKEE *     CLEAR     63  63 100 CALM      30.12R
DENISON *      CLEAR     63  63 100 CALM      30.12R
LE MARS *      CLEAR     61  59  94 CALM      30.13R
ORANGE CITY *  CLEAR     70  57  64 CALM      30.13S
SHELDON *      CLEAR     57  57 100 CALM      30.12S
SIOUX CITY     CLEAR     67  61  81 E5        30.12R
SPENCER        CLEAR     63  59  87 CALM      30.13R
STORM LAKE *   CLEAR     66  63  88 CALM      30.14R
$$

IAZ055>058-069>071-079>083-090>094-020600-
   SOUTHWEST IOWA

CITY           SKY/WX    TMP DP  RH WIND       PRES   REMARKS
ATLANTIC *     CLEAR     63  61  94 N5        30.12R
AUDUBON *      CLEAR     61  57  88 CALM      30.14R
CLARINDA *     CLEAR     64  64 100 N3        30.12R
COUNCIL BLFS * CLEAR     68  64  88 N5        30.11R
CRESTON *      CLEAR     66  63  88 E7        30.13R
HARLAN  *      CLEAR     63  63 100 N3        30.16R
LAMONI         CLEAR     69  62  78 NE3       30.12R
RED OAK *      CLEAR     64  63  94 CALM      30.11S
SHENANDOAH *   CLEAR     64  63  94 CALM      30.12R
$$

IAZ047>049-059>061-072>074-084-020600-
   CENTRAL IOWA

CITY           SKY/WX    TMP DP  RH WIND       PRES   REMARKS
AMES           CLEAR     62  60  93 SW3       30.11R
ANKENY *       CLEAR     64  61  88 CALM      30.12R
CHARITON *     CLEAR     66  61  82 S3        30.12R
DES MOINES     CLEAR     72  60  66 SE3       30.11R
GRINNELL*      CLEAR     64  61  88 CALM      30.12R
KNOXVILLE *    CLEAR     68  61  77 CALM      30.10S
MARSHALLTOWN   CLEAR     65  62  90 CALM      30.11R
PELLA *        CLEAR     65  61  85 CALM      30.12R
PERRY *          N/A     63  61  94 CALM      30.12R
$$

IAZ004>006-015-016-023>025-035-036-020600-
   NORTH CENTRAL IOWA

CITY           SKY/WX    TMP DP  RH WIND       PRES   REMARKS
ALGONA *       CLEAR     64  63  94 S3        30.12S
CLARION *      CLEAR     63  61  94 CALM      30.12R
ESTHERVILLE    CLEAR     61  58  90 SW5       30.12R
FORT DODGE *   PTCLDY    63  59  88 CALM      30.13R
MASON CITY     CLEAR     61  60  97 CALM      30.13S
FOREST CITY *  CLEAR     59  59 100 CALM      30.12R FOG
IOWA FALLS *   MOCLDY    64  61  88 CALM      30.13R
$$

IAZ007>011-017>019-026>030-037>042-050>054-066-020600-
   NORTHEAST IOWA

CITY           SKY/WX    TMP DP  RH WIND       PRES   REMARKS
CEDAR RAPIDS   CLEAR     64  64 100 CALM      30.10S
CHARLES CITY * CLEAR     63  59  88 S3        30.12S
CLINTON *      PTCLDY    66  59  77 SE5       30.15F
DECORAH *      PTCLDY    64  61  88 SE5       30.12R
DUBUQUE        CLEAR     64  57  78 SE12      30.12F
MONTICELLO *     N/A     66  59  77 E6        30.12S
OELWEIN *      CLEAR     64  63  94 SE5       30.12S
WATERLOO       CLEAR     64  62  93 CALM      30.10R
$$

IAZ064-065-067-068-078-020600-
   EAST CENTRAL IOWA

CITY           SKY/WX    TMP DP  RH WIND       PRES   REMARKS
DAVENPORT      CLEAR     66  61  84 NE9       30.13R
IOWA CITY      PTCLDY    67  64  90 S3        30.12R
MT. PLEASANT * CLEAR     64  63  94 CALM      30.12R
MUSCATINE *    CLEAR     64  61  88 CALM      30.11S
QUAD CITIES    CLEAR     63  60  90 MISG      30.12R
$$

IAZ062-063-075>077-085>089-095>099-020600-
   SOUTHEAST IOWA

CITY           SKY/WX    TMP DP  RH WIND       PRES   REMARKS
BURLINGTON     CLEAR     62  61  96 N5        30.10S
FAIRFIELD *    CLEAR     66  61  82 S5        30.12S
FORT MADISON * CLEAR     63  63 100 CALM      30.11F
KEOKUK *       CLEAR     63  61  94 CALM      30.10R
OSKALOOSA *      N/A     66  63  88 E3        30.11S
CENTERVILLE *  PTCLDY    59  59 100 CALM      30.13S
OTTUMWA        CLEAR     65  61  87 E5        30.11R
WASHINGTON *   CLEAR     64  63  94 CALM      30.11S
$$

ABBREVIATIONS USED IN REMARKS
   TC - TEMPERATURES IN CELSIUS
  WCI - WIND CHILL INDEX
   HX - HEAT INDEX
  VSB - VISIBILITY
$$



USA.gov is the U.S. government's official web portal to all federal, state and local government web resources and services.